Flag for U.S.A. Weather past 2 weeks in Prudhoe Bay, Alaska, U.S.A.

Now
36 °F

Fog.


Feels Like: 28 °F
Forecast: 34 / 47 °F
Wind: 12 mph from East

Location: Deadhorse Airport

Current Time: Jul 31, 2014 at 4:25:42 AM

Latest Report: Jul 31, 2014 at 2:53 AM


Visibility: 2 mi

Pressure: 30.19 "Hg

Humidity: 92%

Dew point: 34 °F

Location of Prudhoe BayLocation

Historic Weather in Prudhoe Bay — Graph

°F

Prudhoe Bay temperature yesterday

Maximum temperature yesterday: 42 °F (at 12:53 PM)
Minimum temperature yesterday: 30 °F (at 3:53 AM)
Average temperature yesterday: 36 °F

Past Weeks' High & Low Weather Summary

 TemperatureHumidityPressure
High63 °F (Jul 16, 5:53 PM)97% (Jul 23, 2:53 AM)30.37 "Hg (Jul 23, 2:53 AM)
Low30 °F (Jul 30, 3:53 AM)56% (Jul 19, 2:53 PM)29.52 "Hg (Jul 18, 9:53 AM)
Average44 °F82%29.91 "Hg
* Reported Jul 16 2:53 AM — Jul 31 2:53 AM, Prudhoe Bay, Weather by CustomWeather, © 2014

Note: Actual official high and low records may vary slightly from our data, if they occured in-between our weather recording intervals... More about our weather records

Advertising

Prudhoe Bay weather history for previous 24 hours

 ConditionsComfort  
Time TempWeatherWind HumidityBarometerVisibility
2:53 AM
Jul 31
36 °FFog.12 mph92%30.19 "Hg2 mi
1:53 AM36 °FPartly sunny.13 mph92%30.21 "Hg10 mi
1:04 AM36 °FPassing clouds.12 mph92%30.21 "Hg10 mi
12:53 AM36 °FPassing clouds.12 mph92%30.21 "Hg10 mi
11:53 PM
Jul 30
36 °FScattered clouds.14 mph92%30.22 "Hg10 mi
10:53 PM37 °FScattered clouds.14 mph86%30.23 "Hg10 mi
9:53 PM38 °FScattered clouds.18 mph86%30.23 "Hg10 mi
8:53 PM38 °FBroken clouds.17 mph86%30.24 "Hg10 mi
8:03 PM38 °FScattered clouds.17 mph86%30.25 "Hg10 mi
7:53 PM39 °FPartly sunny.17 mph82%30.26 "Hg10 mi
6:53 PM40 °FPassing clouds.17 mph80%30.27 "Hg10 mi
5:53 PM41 °FPassing clouds.17 mph76%30.28 "Hg10 mi
4:53 PM41 °FPassing clouds.18 mph76%30.29 "Hg10 mi
3:53 PM42 °FPassing clouds.18 mph73%30.30 "Hg10 mi
2:53 PM42 °FSunny.17 mph71%30.31 "Hg10 mi
1:53 PM42 °FSunny.14 mph73%30.32 "Hg10 mi
12:53 PM42 °FPassing clouds.14 mph73%30.33 "Hg10 mi
11:53 AM41 °FPassing clouds.10 mph76%30.34 "Hg10 mi
10:53 AM37 °FLow clouds.12 mph86%30.34 "Hg10 mi
9:53 AM35 °FFog.9 mph92%30.35 "Hg3 mi
8:53 AM33 °FFog.8 mph92%30.36 "Hg1 mi
8:04 AM32 °FIce fog.5 mph92%30.36 "Hg1 mi
6:53 AM31 °FIce fog.6 mph96%30.36 "Hg1 mi
5:53 AM30 °FIce fog.6 mph96%30.37 "Hg1 mi
4:53 AM30 °FIce fog.6 mph96%30.37 "Hg1 mi
Weather by CustomWeather, © 2014

See weather overviewHow to use our weather pages